Wilmington, OH

12:54 AM EDT on July 21, 2017 (GMT -0400)
Airborne

Weather History for KILN - December, 2012

Change the Weather History Date:

Thursday, December 13, 2012

  Actual Average (KFFO) Record (KFFO)
Temperature  
Mean Temperature 34 °F -  
Max Temperature 46 °F 39 °F 62 °F (2015)
Min Temperature 23 °F 25 °F 10 °F (2005)
Degree Days  
Heating Degree Days 30    
Moisture  
Dew Point 25 °F    
Average Humidity 75    
Maximum Humidity 92    
Minimum Humidity 46    
Precipitation  
Precipitation 0.00 in - - ()
Sea Level Pressure  
Sea Level Pressure 30.42 in    
Wind  
Wind Speed 2 mph (SSE)    
Max Wind Speed 7 mph    
Max Gust Speed -    
Visibility 9 miles    
Events      
Averages and records for this station are not official NWS values.
T = Trace of Precipitation, MM = Missing Value Source: NWS Daily Summary

Daily Weather History Graph

Daily Weather History Graph

Search for Another Location

Airport or City:

Trip Planner

Search our weather history database for the weather conditions in past years. The results will help you decide how hot, cold, wet, or windy it might be!

Date:

Astronomy

Dec. 13, 2012 Rise Set
Actual Time 7:47 AM EST 5:12 PM EST
Civil Twilight 7:16 AM EST 5:42 PM EST
Nautical Twilight 6:43 AM EST 6:16 PM EST
Astronomical Twilight 6:10 AM EST 6:48 PM EST
Moon 7:54 AM EST (12/13) 5:53 PM EST (12/13)
Length of Visible Light 10h 25m
Length of Day
9h 25m
New Moon, 0% of the Moon is Illuminated
Dec 13
New Moon
Dec 20
First Quarter
Dec 28
Full
Jan 4
Last Quarter
Jan 11
New

Hourly Weather History & Observations

Time (EST) Temp. Windchill Dew Point Humidity Pressure Visibility Wind Dir Wind Speed Gust Speed Precip Events Conditions
12:54 AM 25.0 °F - 21.9 °F 88% 30.44 in 10.0 mi Calm Calm - N/A   Clear
1:54 AM 27.0 °F 23.0 °F 21.9 °F 81% 30.43 in 10.0 mi East 3.5 mph - N/A   Clear
2:54 AM 25.0 °F 20.7 °F 23.0 °F 92% 30.44 in 9.0 mi ESE 3.5 mph - N/A   Clear
3:54 AM 27.0 °F - 23.0 °F 85% 30.44 in 8.0 mi Calm Calm - N/A   Clear
4:54 AM 25.0 °F - 21.9 °F 88% 30.46 in 8.0 mi Calm Calm - N/A   Clear
5:54 AM 24.1 °F - 21.9 °F 91% 30.46 in 6.0 mi Calm Calm - N/A   Clear
6:54 AM 23.0 °F 18.4 °F 21.0 °F 92% 30.48 in 5.0 mi NNE 3.5 mph - N/A   Clear
7:54 AM 23.0 °F - 21.0 °F 92% 30.48 in 3.0 mi Calm Calm - N/A   Clear
8:54 AM 28.9 °F - 25.0 °F 85% 30.48 in 4.0 mi Calm Calm - N/A   Clear
9:54 AM 33.1 °F - 26.1 °F 75% 30.48 in 10.0 mi Calm Calm - N/A   Clear
10:54 AM 37.0 °F 33.3 °F 28.0 °F 70% 30.47 in 10.0 mi SSE 4.6 mph - N/A   Clear
11:54 AM 41.0 °F 37.1 °F 28.0 °F 60% 30.43 in 10.0 mi South 5.8 mph - N/A   Clear
12:54 PM 43.0 °F 39.5 °F 27.0 °F 53% 30.41 in 10.0 mi South 5.8 mph - N/A   Clear
1:54 PM 46.0 °F 42.5 °F 26.1 °F 46% 30.39 in 10.0 mi South 6.9 mph - N/A   Clear
2:54 PM 45.0 °F 41.2 °F 25.0 °F 46% 30.38 in 10.0 mi South 6.9 mph - N/A   Clear
3:54 PM 45.0 °F 41.2 °F 27.0 °F 49% 30.38 in 10.0 mi SSW 6.9 mph - N/A   Clear
4:54 PM 41.0 °F 38.0 °F 28.9 °F 62% 30.36 in 10.0 mi South 4.6 mph - N/A   Clear
8:54 PM 33.1 °F - 27.0 °F 78% 30.36 in 10.0 mi Calm Calm - N/A   Clear
9:54 PM 30.9 °F 27.5 °F 27.0 °F 85% 30.35 in 10.0 mi South 3.5 mph - N/A   Clear
10:54 PM 32.0 °F 26.4 °F 27.0 °F 82% 30.33 in 10.0 mi South 5.8 mph - N/A   Clear
11:54 PM 32.0 °F 26.4 °F 26.1 °F 79% 30.32 in 10.0 mi SSW 5.8 mph - N/A   Clear